World > North America > United States > Mississippi

Crenshaw, Mississippi Regional Weather

Lat: 34.50N, Lon: 90.19W
Wx Zone: MSZ012Web Search

Helpful Tip: You can add this page to Bookmarks by pressing the Ctrl key & d key at the same time. Mac users press command & d.

Feedback


°F Click to change Crenshaw hourly weather to Imperial units.Click to change Crenshaw hourly weather to Metric units. °C
Crenshaw Weather Map
UTC Time: 4/12/2021, 16:25
Your Time:

Crenshaw, MS Regional Weather

Expires:202104121700;;442845
ASUS44 KJAN 121610
RWRMS 

MISSISSIPPI HOURLY WEATHER ROUNDUP
NATIONAL WEATHER SERVICE JACKSON MS
1100 AM CDT MON APR 12 2021

NOTE: "FAIR: INDICATES FEW OR NO CLOUDS BELOW 12,000 FEET WITH NO
SIGNIFICANT WEATHER AND/OR OBSTRUCTIONS TO VISIBILITY.


MSZ001>002-007>008-010>013-018>021-025>028-034>036-121700-
NORTHWEST MISSISSIPPI
  
CITY           SKY/WX    TMP DP  RH WIND       PRES   REMARKS
BATESVILLE     FAIR      73  50  43 VRB3      29.91S                  
CLARKSDALE       N/A     70  54  56 CALM      29.92R                  
CLEVELAND      FAIR      73  52  48 W6        29.91R                  
GREENWOOD      SUNNY     76  54  46 CALM      29.91R                  
GREENVILLE     SUNNY     75  53  46 W8        29.90R                  
OLIVE BRANCH   SUNNY     73  50  43 W6        29.89S                  
OXFORD         SUNNY     72  48  43 NW9       29.93S                  
TUNICA         SUNNY     72  50  46 W7        29.92R                  
WINONA         FAIR      73  55  52 S5        29.91S                  
$$


SKY/WX - Weather  TMP - Temperature  DP - Dew Point  RH - Relative Humidity
WIND - Wind Direction/Speed PRES - Barometric Pressure VSB - Visibility
WCI - Wind Chill Index E13G22 Wind - East Wind 13 mph/Gusts of 22 mph